Flight Track Log - Related Links

Times and Time Zones

All times are in EST time to prevent confusion due to time zone crossing. See the EJA633 flight status page for this flight to view local times or setup timezone preferences in your user account.

Time Position Orientation Groundspeed Altitude Reporting Facility
EST Latitude Longitude Course Direction KTS MPH feet Rate Location/Type
Fri 07:49:05 AM 40.7667 -74.4333 252° West 189 217 2,000  Level New York TRACON
Fri 07:50:05 AM 40.7167 -74.3833 143° Southeast 243 280 5,200 3,150 Climbing New York TRACON
Fri 07:51:05 AM 40.7500 -74.3500 37° Northeast 255 293 8,300 3,158 Climbing New York TRACON
Fri 07:51:59 AM 40.7833 -74.4167 303° West 234 269 11,200 2,852 Climbing New York TRACON
Fri 07:54:00 AM 40.8790 -75.0239 252° West  Level Estimated
Fri 07:54:08 AM 40.8139 -74.6069 282° West 262 302 17,000  Level New York Center
Fri 07:55:08 AM 40.8333 -74.7122 284° West 302 348 17,900 1,500 Climbing New York Center
Fri 07:56:08 AM 40.8250 -74.8325 265° West 325 374 20,000 2,200 Climbing New York Center
Fri 07:57:08 AM 40.8128 -74.9494 262° West 331 381 22,300 2,250 Climbing New York Center
Fri 07:58:08 AM 40.8019 -75.0722 263° West 331 381 24,500 2,250 Climbing New York Center
Fri 07:59:08 AM 40.7872 -75.1919 261° West 331 381 26,800 2,150 Climbing New York Center
Fri 08:00:08 AM 40.7744 -75.3089 262° West 331 381 28,800 2,050 Climbing New York Center
Fri 08:01:08 AM 40.7825 -75.4217 275° West 324 373 30,900 1,800 Climbing New York Center
Fri 08:02:08 AM 40.7944 -75.5378 278° West 324 373 32,400 1,450 Climbing New York Center
Fri 08:03:08 AM 40.8106 -75.6567 280° West 324 373 33,800 1,350 Climbing New York Center
Fri 08:04:08 AM 40.8222 -75.7783 277° West 329 379 35,100 1,350 Climbing New York Center
Fri 08:05:08 AM 40.8356 -75.9000 278° West 335 386 36,500 1,400 Climbing New York Center
Fri 08:06:08 AM 40.8511 -76.0219 280° West 335 386 37,900 1,450 Climbing New York Center
Fri 08:07:08 AM 40.8644 -76.1436 278° West 335 386 39,400 700 Climbing New York Center
Fri 08:09:08 AM 40.8872 -76.3733 278° West 330 380 40,000 200 Climbing New York Center
Fri 08:10:08 AM 40.9003 -76.4897 278° West 330 380 40,000  Level New York Center
Fri 08:11:08 AM 40.9153 -76.6092 279° West 335 386 40,000  Level New York Center
Fri 08:12:08 AM 40.9261 -76.7281 277° West 335 386 40,000  Level New York Center
Fri 08:13:08 AM 40.9389 -76.8447 278° West 335 386 40,000  Level New York Center
Fri 08:14:08 AM 40.9514 -76.9639 278° West 335 386 40,000  Level New York Center
Fri 08:15:08 AM 40.9642 -77.0806 278° West 335 386 40,000  Level New York Center
Fri 08:16:08 AM 40.9767 -77.1972 278° West 330 380 40,000  Level New York Center
Fri 08:17:08 AM 40.9889 -77.3164 278° West 330 380 40,000  Level New York Center
Fri 08:18:08 AM 41.0011 -77.4333 278° West 330 380 40,000  Level New York Center
Fri 08:20:30 AM 41.0283 -77.7222 277° West 330 380 40,000  Level Cleveland Center
Fri 08:21:32 AM 41.0394 -77.8433 277° West 332 382 40,000  Level Cleveland Center
Fri 08:22:35 AM 41.0511 -77.9650 277° West 335 386 40,000  Level Cleveland Center
Fri 08:23:37 AM 41.0656 -78.1114 278° West 335 386 40,000  Level Cleveland Center
Fri 08:24:39 AM 41.0769 -78.2347 277° West 339 390 40,000  Level Cleveland Center
Fri 08:25:41 AM 41.0872 -78.3489 277° West 338 389 40,000  Level Cleveland Center
Fri 08:26:43 AM 41.0989 -78.4736 277° West 340 391 40,000  Level Cleveland Center
Fri 08:27:45 AM 41.1133 -78.6228 277° West 343 395 40,000  Level Cleveland Center
Fri 08:28:47 AM 41.1228 -78.7444 276° West 334 384 40,000  Level Cleveland Center
Fri 08:29:49 AM 41.1328 -78.8669 276° West 335 386 40,000  Level Cleveland Center
Fri 08:30:51 AM 41.1433 -78.9861 277° West 338 389 40,000  Level Cleveland Center
Fri 08:31:53 AM 41.1558 -79.1342 276° West 339 390 40,000  Level Cleveland Center
Fri 08:32:55 AM 41.1664 -79.2586 276° West 341 392 40,000  Level Cleveland Center
Fri 08:33:57 AM 41.1756 -79.3883 275° West 341 392 40,000  Level Cleveland Center
Fri 08:34:59 AM 41.1867 -79.5133 277° West 341 392 40,000  Level Cleveland Center
Fri 08:36:01 AM 41.1972 -79.6406 276° West 346 398 40,000  Level Cleveland Center
Fri 08:37:03 AM 41.2069 -79.7619 276° West 347 399 40,000  Level Cleveland Center
Fri 08:38:06 AM 41.2178 -79.9144 275° West 347 399 40,000  Level Cleveland Center
Fri 08:39:08 AM 41.2294 -80.0475 277° West 348 400 40,000  Level Cleveland Center
Fri 08:40:10 AM 41.2378 -80.1756 275° West 349 402 40,000  Level Cleveland Center
Fri 08:41:12 AM 41.2475 -80.3017 276° West 345 397 40,000  Level Cleveland Center
Fri 08:42:14 AM 41.2578 -80.4333 276° West 345 397 40,000  Level Cleveland Center
Fri 08:43:16 AM 41.2664 -80.5611 275° West 345 397 40,000  Level Cleveland Center
Fri 08:44:18 AM 41.2753 -80.6897 275° West 346 398 40,000  Level Cleveland Center
Fri 08:45:20 AM 41.2836 -80.8178 275° West 346 398 40,000  Level Cleveland Center
Fri 08:46:22 AM 41.2950 -80.9669 276° West 346 398 40,000  Level Cleveland Center
Fri 08:47:24 AM 41.3028 -81.0933 275° West 341 392 40,000  Level Cleveland Center
Fri 08:48:26 AM 41.3114 -81.2214 275° West 344 396 40,000  Level Cleveland Center
Fri 08:49:28 AM 41.3194 -81.3486 275° West 345 397 40,000  Level Cleveland Center
Fri 08:50:30 AM 41.3278 -81.4878 275° West 344 396 40,000  Level Cleveland Center
Fri 08:51:32 AM 41.3361 -81.6133 275° West 344 396 40,000  Level Cleveland Center
Fri 08:52:34 AM 41.3439 -81.7392 275° West 343 395 40,000  Level Cleveland Center
Fri 08:53:36 AM 41.3511 -81.8647 274° West 342 394 40,000  Level Cleveland Center
Fri 08:54:38 AM 41.3589 -81.9908 275° West 342 394 40,000  Level Cleveland Center
Fri 08:55:40 AM 41.3667 -82.1239 274° West 343 395 40,000  Level Cleveland Center
Fri 08:56:41 AM 41.3736 -82.2511 274° West 342 394 40,000  Level Cleveland Center
Fri 08:57:43 AM 41.3825 -82.4000 275° West 343 395 40,000  Level Cleveland Center
Fri 08:58:45 AM 41.3889 -82.5278 274° West 344 396 40,000  Level Cleveland Center
Fri 08:59:47 AM 41.3956 -82.6567 274° West 346 398 40,000  Level Cleveland Center
Fri 09:00:49 AM 41.4025 -82.7856 274° West 346 398 40,000  Level Cleveland Center
Fri 09:01:51 AM 41.4092 -82.9153 274° West 347 399 40,000  Level Cleveland Center
Fri 09:02:53 AM 41.4158 -83.0444 274° West 347 399 40,000  Level Cleveland Center
Fri 09:03:55 AM 41.4219 -83.1750 274° West 350 403 40,000 -97 Level Cleveland Center
Fri 09:04:57 AM 41.4292 -83.3050 274° West 349 402 39,800 -532 Descending Cleveland Center
Fri 09:05:59 AM 41.4347 -83.4278 273° West 336 387 38,900 -912 Descending Cleveland Center
Fri 09:07:02 AM 41.4417 -83.5761 274° West 336 387 37,900 -864 Descending Cleveland Center
Fri 09:08:04 AM 41.4467 -83.7008 273° West 338 389 37,100 -871 Descending Cleveland Center
Fri 09:09:06 AM 41.4522 -83.8294 273° West 345 397 36,100 -968 Descending Cleveland Center
Fri 09:10:08 AM 41.4578 -83.9597 273° West 352 405 35,100 -968 Descending Cleveland Center
Fri 09:11:10 AM 41.4628 -84.0911 273° West 354 407 34,100 -1,030 Descending Cleveland Center
Fri 09:11:47 AM 41.4669 -84.1881 273° West 356 410 33,400 -1,030 Descending Chicago Center
Fri 09:12:49 AM 41.4739 -84.3161 274° West 348 400 32,400 -968 Descending Chicago Center
Fri 09:13:51 AM 41.4778 -84.4461 272° West 351 404 31,400 -968 Descending Chicago Center
Fri 09:14:53 AM 41.4817 -84.5792 272° West 358 412 30,400 -677 Descending Chicago Center
Fri 09:15:55 AM 41.4872 -84.7111 273° West 359 413 30,000 -339 Descending Chicago Center
Fri 09:16:57 AM 41.4914 -84.8436 272° West 358 412 29,700 -864 Descending Chicago Center
Fri 09:18:00 AM 41.4969 -85.0042 273° West 362 417 28,200 -1,344 Descending Chicago Center
Fri 09:19:02 AM 41.5014 -85.1453 272° West 377 434 26,900 -1,210 Descending Chicago Center
Fri 09:20:04 AM 41.5050 -85.2861 272° West 379 436 25,700 -1,161 Descending Chicago Center
Fri 09:21:06 AM 41.5083 -85.4294 272° West 378 435 24,500 -1,306 Descending Chicago Center
Fri 09:22:08 AM 41.5128 -85.5697 272° West 372 428 23,000 -1,548 Descending Chicago Center
Fri 09:23:10 AM 41.5167 -85.7044 272° West 363 418 21,300 -1,790 Descending Chicago Center
Fri 09:24:12 AM 41.5200 -85.8369 272° West 359 413 19,300 -1,935 Descending Chicago Center
Fri 09:25:14 AM 41.5233 -85.9656 272° West 350 403 17,300 -2,226 Descending Chicago Center
Fri 09:26:16 AM 41.5239 -86.1131 270° West 334 384 14,700 -2,226 Descending Chicago Center
Fri 09:27:18 AM 41.5228 -86.2378 269° West 337 388 12,700 -1,839 Descending Chicago Center
Fri 09:28:20 AM 41.5233 -86.3561 270° West 325 374 10,900 -1,306 Descending Chicago Center
Fri 09:29:22 AM 41.5225 -86.4675 269° West 310 357 10,000 -432 Descending Chicago Center
Fri 09:30:25 AM 41.5222 -86.5794 270° West 303 349 10,000 -48 Level Chicago Center
Fri 09:31:27 AM 41.5194 -86.6881 268° West 297 342 9,900 -677 Descending Chicago Center
Fri 09:32:29 AM 41.5203 -86.7958 271° West 249 287 8,600 -1,210 Descending Chicago Center
Fri 09:33:31 AM 41.5186 -86.8847 269° West 242 278 7,400 -1,161 Descending Chicago Center
Fri 09:34:33 AM 41.5181 -86.9761 270° West 244 281 6,200 -677 Descending Chicago Center
Fri 09:35:35 AM 41.5208 -87.0653 272° West 245 282 6,000 -339 Descending Chicago Center
Fri 09:36:37 AM 41.5389 -87.1514 286° West 241 277 5,500 -871 Descending Chicago Center
Fri 09:37:39 AM 41.5572 -87.2553 283° West 241 277 4,200 -774 Descending Chicago Center
Fri 09:38:41 AM 41.5683 -87.3436 280° West 241 277 3,900 -145 Descending Chicago Center
Fri 09:39:43 AM 41.5797 -87.4328 280° West 243 280 3,900  Level Chicago Center
Fri 09:40:45 AM 41.6133 -87.5133 299° West 250 288 3,900  Level Chicago Center
Fri 09:41:48 AM 41.6631 -87.5803 315° West 255 293 3,900 -624 Level Chicago Center
Fri 09:42:50 AM 41.7142 -87.6533 313° West 242 278 2,600 -1,065 Descending Chicago Center
Fri 09:43:52 AM 41.7483 -87.6997 315° West 208 239 1,700 -435 Descending Chicago Center
Fri 09:44:54 AM 41.7814 -87.7094 348° North 163 188 1,700 -290 Level Chicago Center
Fri 09:45:56 AM 41.8028 -87.7344 319° Northwest 145 167 1,100 -581 Descending Chicago Center
Fri 09:47:00 AM 41.7833 -87.7500 334° Northwest  Level FlightAware Approximate

Login

Don't have an account? Register now (free) for customized features, flight alerts, and more!